This is the latest recevied weather packets stored in our database for station/object K0CVS. If no packets are shown the sender has not sent any weather packets the latest 10 day(s).
| Time | Temp. | Humidity | Pressure | Rain* | Wind** | Luminosity | Snow |
|---|---|---|---|---|---|---|---|
| 1778097163 | 15.56° C | 33% | 1019 hPa | 0 mm | - | 723 W/m² | - |
| 1778096860 | 15.56° C | 33% | 1018.9 hPa | 0 mm | - | 701 W/m² | - |
| 1778096556 | 15.56° C | 33% | 1018.7 hPa | 0 mm | - | 709 W/m² | - |
| 1778096255 | 15° C | 35% | 1018.9 hPa | 0 mm | - | 713 W/m² | - |
| 1778095951 | 15.56° C | 33% | 1019 hPa | 0 mm | - | 717 W/m² | - |
| 1778095647 | 15° C | 33% | 1018.9 hPa | 0 mm | - | 725 W/m² | - |
| 1778095344 | 15° C | 33% | 1018.9 hPa | 0 mm | - | 729 W/m² | - |
| 1778095041 | 15° C | 31% | 1019.1 hPa | 0 mm | - | 738 W/m² | - |
| 1778094737 | 15° C | 32% | 1019 hPa | 0 mm | - | 744 W/m² | - |
| 1778094435 | 15° C | 32% | 1019 hPa | 0 mm | - | 749 W/m² | - |
| 1778094131 | 15° C | 34% | 1019 hPa | 0 mm | - | 752 W/m² | - |
| 1778093828 | 15° C | 34% | 1019.1 hPa | 0 mm | - | 754 W/m² | - |
| 1778093525 | 15° C | 33% | 1019.1 hPa | 0 mm | - | 757 W/m² | - |
| 1778093223 | 15° C | 33% | 1019.2 hPa | 0 mm | - | 762 W/m² | - |
| 1778092920 | 14.44° C | 36% | 1019.1 hPa | 0 mm | - | 766 W/m² | - |
| 1778092616 | 14.44° C | 32% | 1019.3 hPa | 0 mm | - | 769 W/m² | - |
| 1778092312 | 13.89° C | 34% | 1019.2 hPa | 0 mm | - | 786 W/m² | - |
| 1778092009 | 13.89° C | 36% | 1019.4 hPa | 0 mm | - | 379 W/m² | - |
| 1778091706 | 13.89° C | 34% | 1019.4 hPa | 0 mm | - | 339 W/m² | - |
| 1778091404 | 13.33° C | 36% | 1019.5 hPa | 0 mm | - | 294 W/m² | - |
| 1778091100 | 13.33° C | 38% | 1019.5 hPa | 0 mm | - | 416 W/m² | - |
| 1778090798 | 12.78° C | 40% | 1019.3 hPa | 0 mm | - | 227 W/m² | - |
| 1778090494 | 12.78° C | 37% | 1019.6 hPa | 0 mm | - | 187 W/m² | - |
| 1778090191 | 12.78° C | 39% | 1019.5 hPa | 0 mm | - | 184 W/m² | - |
| 1778089887 | 12.78° C | 37% | 1019.6 hPa | 0 mm | - | 180 W/m² | - |
* Rain latest hour (hover to see other rain measurements)
** Current wind speed in m/s (hover to see current wind gust speed)